GEFSSE_con_prob3kmehi_222.txt.gz
EHI
18 20 27 27 15 4 1 1 2 3 3 4 5 7 9 11 12 13 13 12 11 8 5 3 3 3 3 4 4 2 2 2 4 6 7 7 7 9 10 9 7 9 14
19 22 28 28 18 8 3 2 2 2 3 4 5 6 9 11 11 12 12 10 8 7 4 2 2 3 3 2 2 2 2 2 2 3 4 4 5 8 11 13 13 15 17
22 24 28 28 21 12 6 3 3 3 3 4 4 5 8 10 11 11 11 9 8 6 4 2 1 1 1 1 1 3 3 1 0 1 1 1 3 8 16 21 21 19 19
25 28 30 28 21 14 9 5 5 5 6 5 5 6 7 11 12 11 11 10 8 6 4 2 1 1 0 0 1 2 2 1 1 0 1 1 3 11 21 26 25 21 18
27 30 33 29 20 13 10 8 7 8 8 7 7 7 7 10 12 11 10 10 7 5 3 3 3 3 2 1 1 1 2 2 1 1 2 3 6 16 24 27 25 21 17
25 29 32 28 20 14 13 12 10 9 8 9 9 9 8 8 8 8 9 9 8 6 5 5 5 5 5 3 2 2 3 3 1 1 2 5 11 22 27 26 24 21 19
22 26 29 27 21 19 18 16 12 9 8 9 9 9 8 8 7 6 6 8 8 7 7 7 7 7 6 4 3 2 2 2 1 1 3 7 17 28 30 26 25 23 20
20 23 25 23 21 21 21 18 13 11 10 10 9 8 7 7 6 4 3 5 7 7 7 7 7 6 5 4 2 1 1 2 2 2 4 10 23 32 31 26 25 23 20
20 21 20 17 16 17 18 17 14 12 13 12 10 8 7 6 5 3 3 4 6 7 6 5 5 6 6 6 4 2 2 3 2 2 4 12 26 33 32 27 24 21 19
20 19 16 14 13 13 14 15 15 13 15 14 10 7 7 5 4 4 5 6 6 7 7 8 8 9 9 9 8 6 4 3 1 0 3 13 26 33 32 27 23 19 16
20 17 15 14 14 12 12 14 14 13 14 13 10 8 7 6 4 6 8 8 7 7 9 11 12 13 11 10 9 7 5 2 0 1 4 13 24 30 30 26 22 16 12
19 16 14 16 16 14 13 13 13 13 12 10 9 10 9 7 6 8 13 13 10 9 10 12 13 13 11 8 7 6 3 1 1 2 6 14 22 25 27 26 21 14 9
19 18 18 18 19 20 20 17 15 15 13 10 10 13 12 9 8 11 16 18 15 12 12 13 13 12 9 7 7 6 4 3 2 5 10 17 21 21 22 23 19 13 10
18 19 22 23 24 26 27 22 19 18 15 12 14 17 16 13 10 11 14 15 15 14 13 13 13 12 9 8 8 7 6 6 6 7 12 18 20 18 17 18 16 13 12
18 20 23 26 27 29 29 25 21 19 16 16 20 21 19 16 13 11 11 12 12 12 12 11 11 11 10 8 7 7 6 7 7 7 10 15 18 16 13 14 13 11 11
22 22 24 26 28 30 29 25 22 19 17 18 21 21 19 17 17 16 15 14 11 10 11 10 9 8 7 7 7 6 7 7 6 5 6 9 12 11 10 11 10 10 10
26 25 25 24 26 28 27 24 21 18 17 19 21 21 20 19 21 22 20 17 12 12 13 11 7 5 6 7 7 6 6 6 5 4 5 6 7 8 7 7 7 8 10
26 26 25 23 23 23 22 21 20 19 20 22 24 24 21 20 21 21 20 16 14 13 13 11 8 7 8 9 8 7 6 6 6 5 4 5 6 7 7 5 5 7 8
25 25 25 24 23 22 20 20 21 22 23 25 26 24 21 20 19 19 18 15 14 12 11 10 11 12 13 11 8 7 6 7 8 6 5 6 7 8 7 6 5 6 6
24 23 24 27 26 24 23 21 20 21 21 23 23 20 19 19 17 17 17 14 13 11 9 8 9 12 14 12 8 5 6 8 9 8 7 7 8 8 6 6 7 6 5
22 22 24 27 28 27 25 21 17 16 17 17 17 17 17 17 16 16 15 13 11 10 8 7 6 7 9 10 8 5 4 7 8 7 7 6 6 6 6 7 8 8 8
21 22 23 25 25 23 22 18 14 12 12 14 14 13 13 14 13 14 14 12 10 9 8 7 6 5 5 7 8 5 2 3 5 5 5 5 5 6 6 7 8 10 11
19 20 19 20 20 18 16 13 10 8 8 10 10 8 7 9 11 13 14 12 9 8 8 8 7 5 4 5 6 4 2 2 3 4 5 5 6 6 6 7 8 10 12
15 15 16 19 19 17 14 11 7 5 6 6 6 4 3 4 7 10 11 11 10 8 8 7 6 5 4 3 3 4 3 2 3 4 5 6 6 6 6 7 8 9 10
12 12 15 18 19 18 15 11 8 7 6 5 3 1 1 1 3 5 7 9 9 8 7 5 5 6 5 2 2 4 3 2 3 4 3 4 5 5 6 8 9 9 9
12 11 14 17 18 17 14 11 10 9 7 4 2 0 1 1 1 2 5 8 9 8 6 5 5 6 4 3 3 4 3 1 2 3 2 2 3 4 6 9 9 9 9

GEFSSE_con_prob3kmehi_228.txt.gz
EHI
5 10 18 23 24 25 26 27 25 24 23 23 23 24 25 26 25 21 18 18 18 14 8 5 5 4 3 4 5 5 5 3 3 3 3 3 4 6 8 9 7 6 7
9 14 22 27 28 26 26 27 26 23 23 23 24 25 25 25 24 22 18 16 15 12 8 5 3 3 4 4 4 4 4 2 1 1 1 2 3 4 6 6 6 6 8
13 17 24 30 30 26 23 24 24 22 21 22 24 24 24 25 25 23 19 16 13 8 5 3 1 1 3 4 4 4 3 1 0 0 0 1 1 3 4 5 6 8 9
16 19 25 31 31 25 19 18 19 19 18 19 20 21 22 26 27 23 18 14 10 4 2 1 0 0 1 2 3 3 2 1 0 0 0 0 1 4 7 8 9 10 10
18 20 26 30 29 24 18 15 15 15 15 16 16 17 18 22 25 22 16 10 5 2 1 0 0 0 0 0 1 2 1 0 0 1 1 0 1 4 8 11 11 11 11
19 21 26 29 28 25 19 15 14 13 14 16 16 15 14 16 19 18 13 7 3 1 0 0 0 0 0 0 1 2 1 0 1 2 2 0 2 5 8 10 11 10 9
18 20 25 29 28 25 21 17 15 15 15 16 16 14 12 12 13 13 10 7 5 2 0 0 1 1 1 1 2 3 2 1 1 3 2 1 2 6 8 10 9 9 9
16 15 19 24 24 22 21 18 16 16 16 16 16 15 12 11 11 10 8 7 6 4 1 0 1 2 2 2 3 3 3 1 2 3 2 1 2 5 10 13 12 12 13
14 12 12 14 15 16 17 17 18 18 18 18 19 15 12 11 9 7 7 7 6 4 2 1 2 3 3 2 2 4 4 3 2 3 2 1 1 5 11 15 15 13 13
14 13 11 10 9 10 12 14 18 18 17 20 21 18 14 11 8 6 6 6 7 6 4 3 3 4 4 3 3 3 3 4 3 2 1 2 3 6 11 15 14 12 11
15 14 13 11 10 10 9 11 13 14 15 16 18 18 16 13 10 7 5 5 6 7 6 4 4 4 4 3 2 1 1 3 3 1 1 3 5 7 10 13 14 13 13
15 13 12 12 12 12 11 10 10 11 11 12 13 14 13 12 10 7 4 4 5 5 5 4 4 4 3 2 1 1 1 1 1 0 1 4 6 7 9 12 15 16 17
14 12 11 11 11 12 11 10 10 10 10 10 10 10 10 9 8 7 6 4 3 3 3 3 3 3 2 1 1 2 2 1 1 0 2 5 8 9 9 11 14 16 17
12 11 9 9 8 8 8 9 10 10 10 9 9 8 7 7 7 7 7 5 4 4 4 3 3 3 2 1 2 2 2 3 2 1 3 6 9 11 11 11 13 15 16
11 9 7 6 5 5 6 8 8 9 9 9 8 7 6 6 6 6 5 5 5 5 5 4 4 3 3 2 1 1 2 3 3 3 3 6 9 11 12 10 12 13 13
9 8 6 5 3 4 6 7 7 7 8 8 7 6 5 6 6 5 4 4 5 5 5 4 3 3 3 2 1 0 0 1 2 1 2 3 6 10 10 9 9 11 10
8 9 8 7 5 6 7 7 6 6 5 5 5 5 5 5 5 4 4 3 4 5 4 3 3 3 3 2 1 0 0 0 0 0 0 1 4 7 8 7 8 8 7
10 11 11 9 8 9 9 6 4 3 2 2 3 4 4 4 4 4 3 3 3 3 2 1 1 2 1 1 0 0 0 0 0 0 0 1 3 5 6 6 8 7 5
11 13 14 11 9 9 8 6 4 2 1 1 2 3 3 3 4 4 3 3 2 1 1 0 0 0 0 0 0 0 0 0 0 0 0 1 2 3 3 4 6 6 5
13 15 15 11 8 6 7 6 5 3 1 1 1 1 1 2 4 4 3 3 1 0 0 0 0 0 0 0 0 0 0 0 0 0 0 0 1 1 1 2 3 4 4
15 16 15 11 7 6 6 6 4 2 1 0 0 0 0 0 2 4 4 2 1 0 0 0 0 0 0 0 0 0 0 0 0 0 0 0 0 0 0 0 1 1 1
16 16 14 11 8 7 6 5 3 1 0 0 0 0 0 0 1 3 3 2 1 0 0 0 0 0 0 0 0 0 0 0 0 0 0 0 0 0 0 0 0 0 0
16 15 12 10 9 7 6 4 3 1 0 0 0 0 0 0 1 2 2 1 0 0 0 0 0 0 0 0 0 0 0 0 0 0 0 0 0 0 0 0 0 0 0
15 13 10 8 7 6 4 3 2 1 0 0 0 0 0 0 0 1 1 0 0 0 0 0 0 0 0 0 0 0 0 0 0 0 0 0 0 0 0 0 0 0 0
12 11 9 7 6 4 3 3 2 1 0 0 0 0 0 0 0 0 0 0 0 0 0 0 0 0 0 0 0 0 0 0 0 0 0 0 0 0 0 0 0 0 0
10 9 8 6 5 4 3 3 2 1 0 0 0 0 0 0 0 0 0 0 0 0 0 0 0 0 0 0 0 0 0 0 0 0 0 0 0 0 0 0 0 0 0

GEFSSE_con_prob3kmehi_234.txt.gz
EHI
8 15 21 19 18 22 30 35 35 35 40 41 38 34 29 23 18 15 13 14 15 12 9 7 4 2 2 2 2 1 0 0 0 0 0 1 3 3 4 3 1 1 3
13 18 21 20 18 22 29 34 34 35 37 39 39 36 32 27 21 17 15 14 14 12 9 8 6 4 3 2 1 0 0 0 0 0 0 0 1 1 1 1 1 2 5
19 21 22 20 19 22 25 28 30 30 32 34 35 34 32 27 22 18 16 14 12 10 8 8 7 6 5 3 1 0 0 1 1 1 0 0 0 0 0 1 1 4 7
20 21 22 22 22 23 23 23 24 24 25 27 29 28 25 22 20 18 15 13 11 9 7 6 6 6 5 2 1 0 0 1 2 2 1 1 1 0 1 2 3 3 4
16 17 19 23 26 26 24 22 21 19 20 21 22 20 18 18 19 17 13 10 9 8 6 4 4 4 4 2 0 0 0 1 2 2 2 1 1 1 1 2 3 3 2
14 14 17 22 25 26 25 22 19 17 17 18 18 16 14 15 16 14 9 6 6 5 4 2 2 4 5 3 1 1 0 0 1 2 3 2 1 1 0 1 1 2 3
15 14 16 20 22 23 22 19 17 16 17 18 17 16 16 15 14 12 8 5 3 3 3 1 1 4 5 4 3 2 1 0 1 2 3 3 2 1 0 0 1 2 3
14 14 16 19 20 21 21 16 14 15 17 19 19 19 17 15 14 12 9 6 3 3 3 1 0 2 3 3 3 2 1 0 0 1 2 3 3 1 1 1 1 3 4
15 16 18 19 20 21 19 15 14 17 18 19 20 20 16 13 12 10 9 7 4 2 2 1 0 1 3 3 3 2 1 0 1 2 3 4 3 1 1 1 2 4 5
15 16 18 17 17 17 14 12 12 15 17 16 16 16 13 10 8 8 8 7 6 3 2 2 2 3 4 4 3 2 1 1 2 3 4 4 2 2 2 2 2 4 5
12 14 15 15 14 12 10 8 8 10 11 11 10 10 9 8 7 6 6 8 8 5 2 2 3 4 4 3 3 2 1 2 3 4 3 2 1 2 3 3 2 2 4
11 12 13 12 11 10 9 7 6 7 7 7 7 7 8 8 8 7 7 8 8 5 3 2 3 3 2 2 2 2 1 1 4 4 3 2 1 2 3 5 4 3 3
11 12 11 10 10 10 9 8 7 6 6 7 7 7 7 8 9 9 9 9 8 6 4 4 4 4 2 1 1 1 1 1 3 4 3 2 2 2 4 6 6 5 4
12 12 11 10 11 11 10 9 8 7 7 7 7 7 6 7 8 9 9 9 9 8 7 6 5 4 3 1 1 0 1 1 2 2 2 2 2 3 5 7 8 7 6
12 12 10 10 11 11 10 9 9 8 7 6 6 6 6 6 6 6 6 6 7 7 7 6 4 3 3 2 1 0 0 1 2 2 3 2 4 5 7 8 9 8 7
9 9 9 9 10 10 10 10 10 9 8 7 6 5 4 4 5 4 4 4 4 5 6 5 4 3 3 2 1 0 0 1 2 2 2 2 4 6 7 8 9 8 7
5 6 7 8 8 8 9 9 9 9 8 7 6 4 3 3 4 3 3 3 3 4 4 4 3 3 1 1 0 0 0 1 1 1 1 1 2 3 4 5 7 6 4
5 6 7 7 7 6 7 8 8 7 6 6 5 4 3 3 3 3 3 3 3 3 3 3 3 2 1 0 0 0 0 0 0 0 0 0 0 1 2 2 3 3 2
7 8 8 8 7 5 4 4 5 5 4 4 4 3 3 3 3 3 3 3 3 3 3 3 3 3 1 0 0 0 0 0 0 0 0 0 0 0 0 1 1 1 1
8 8 8 8 7 5 2 1 2 3 2 2 3 3 3 3 3 3 3 3 3 3 3 3 3 3 2 0 0 0 0 0 0 0 0 0 0 0 0 0 1 1 1
8 8 7 7 6 4 2 0 1 1 1 1 1 2 3 3 3 3 3 3 3 3 3 3 3 3 2 0 0 0 0 0 0 0 0 0 0 0 0 0 0 0 0
8 7 6 6 5 4 3 1 0 0 0 0 0 1 1 2 3 3 3 3 2 3 3 3 3 3 2 0 0 0 0 0 0 0 0 0 0 0 0 0 0 0 0
6 6 6 5 5 5 4 2 1 1 0 0 0 0 0 1 1 2 2 1 1 1 3 3 3 2 1 0 0 0 0 0 0 0 0 0 0 0 0 0 0 0 0
3 4 4 4 5 6 5 3 2 2 1 0 0 0 0 0 0 1 1 0 0 1 2 2 2 1 0 0 0 0 0 0 0 0 0 0 0 0 0 0 0 0 0
1 2 3 4 4 5 5 4 3 2 1 0 0 0 0 0 0 0 0 0 0 0 1 1 1 0 0 0 0 0 0 0 0 0 0 0 0 0 0 0 0 0 0
0 1 2 3 4 5 5 4 3 1 0 0 0 0 0 0 0 0 0 0 0 0 0 0 0 0 0 0 0 0 0 0 0 0 0 0 0 0 0 0 0 0 0

GEFSSE_con_prob3kmehi_240.txt.gz
EHI
6 13 23 25 19 14 13 15 18 19 18 17 16 12 9 9 10 11 10 11 12 12 11 11 10 9 9 8 5 2 1 0 0 1 0 0 0 1 3 5 6 7 8
8 14 23 25 21 17 16 17 18 19 17 15 14 12 9 10 12 13 12 12 12 11 10 9 9 9 8 7 4 2 0 0 0 1 0 0 1 2 3 5 6 6 8
11 15 21 24 21 18 18 20 20 21 19 16 13 11 8 9 13 15 13 12 11 10 8 7 7 6 5 5 3 1 0 0 0 0 0 0 1 3 4 5 5 6 6
11 15 21 24 22 17 16 19 21 22 22 19 15 12 9 10 14 16 13 11 10 9 6 4 3 2 2 2 1 0 0 0 0 0 0 0 1 3 5 6 6 5 4
9 14 22 25 23 16 14 16 18 20 21 20 16 12 10 11 14 15 13 11 10 8 5 2 0 0 0 0 0 0 0 0 0 0 0 0 1 4 5 5 5 5 5
8 13 20 23 21 17 14 13 14 16 18 19 16 13 12 12 12 13 12 11 10 7 4 1 1 1 1 1 0 0 0 0 0 0 0 0 1 4 4 3 4 5 7
8 12 17 19 18 17 15 13 13 13 16 18 18 16 15 13 12 11 10 9 8 7 5 2 2 2 1 1 0 0 1 0 0 0 0 0 2 4 4 3 3 5 7
9 12 15 16 16 16 17 16 16 16 16 19 21 19 17 15 12 10 9 8 7 7 5 3 3 3 2 1 0 0 0 0 0 0 0 1 4 5 4 3 3 3 4
10 11 13 14 14 14 16 18 19 19 17 18 19 18 15 12 10 7 7 8 8 7 5 4 4 5 3 1 0 0 0 0 0 0 0 2 6 8 6 3 2 2 3
10 11 12 13 12 11 11 13 16 16 15 15 14 13 11 8 6 4 4 6 8 7 4 2 4 5 5 3 1 0 0 0 0 0 1 4 10 10 7 5 3 2 3
11 11 12 12 12 9 7 7 9 10 10 10 9 8 8 5 3 1 2 4 5 4 2 1 2 4 5 4 3 1 1 2 1 1 2 7 11 10 6 4 3 2 2
12 11 11 11 11 10 9 8 7 6 6 6 6 6 6 4 2 1 2 3 3 2 1 0 0 1 2 2 1 1 2 3 2 2 4 7 9 7 4 2 2 2 2
12 11 11 12 12 11 10 10 9 6 5 6 6 6 7 5 4 3 4 3 3 3 3 1 1 0 0 0 0 0 1 3 4 4 3 5 6 4 3 2 2 2 2
12 12 13 14 13 12 11 11 10 8 7 6 7 8 8 6 5 6 6 5 5 6 6 5 3 3 3 2 1 0 0 2 4 4 3 2 3 3 2 3 4 3 2
14 14 15 16 14 14 14 12 10 9 7 7 7 7 7 6 6 7 7 7 7 9 9 9 8 6 5 4 1 0 0 0 2 3 2 1 1 2 2 3 4 3 2
17 17 17 16 14 14 14 12 10 9 8 7 6 6 6 6 7 7 7 7 7 9 10 10 10 8 5 3 1 0 0 0 1 2 4 3 2 1 2 2 3 4 5
17 18 17 14 12 12 11 10 9 8 7 7 6 6 6 6 7 7 7 7 7 9 10 10 9 7 5 2 1 1 1 1 1 2 4 5 3 2 2 2 3 4 5
14 14 13 11 10 10 10 9 8 8 7 7 7 7 7 6 6 7 7 7 8 9 10 9 8 6 6 4 3 2 1 1 1 1 2 3 3 3 2 2 3 3 4
12 10 10 10 10 10 11 11 10 9 9 9 9 8 7 6 6 6 7 8 9 10 9 7 6 7 6 5 4 3 1 1 1 1 1 1 1 2 2 1 2 2 2
13 12 11 10 10 12 14 14 13 11 10 10 9 8 7 6 6 6 6 7 9 10 8 6 6 6 6 4 3 3 2 1 0 1 1 0 0 1 1 1 1 1 1
15 15 13 10 9 12 15 15 14 13 11 10 9 7 7 6 5 5 5 5 7 9 8 7 6 6 5 4 3 3 2 1 0 0 0 0 0 0 0 0 0 0 0
15 16 14 10 9 10 12 14 15 14 12 10 7 7 6 5 3 2 3 4 7 8 8 7 7 6 6 5 4 3 1 0 0 0 0 0 0 0 0 0 0 0 0
15 15 14 11 9 9 9 12 14 13 11 8 6 6 5 3 2 1 2 3 5 6 6 7 7 6 6 6 4 2 1 0 0 0 0 0 0 0 0 0 0 0 1
14 14 13 12 11 10 10 12 14 12 9 7 6 6 5 3 2 1 1 1 3 5 5 5 4 5 5 4 3 1 0 0 0 0 0 0 0 0 0 0 0 0 1
11 11 12 11 11 10 11 14 15 12 8 6 6 6 5 3 1 1 0 1 2 4 5 4 3 3 4 3 2 1 0 1 0 0 0 0 0 0 0 0 1 1 1
8 9 11 11 10 9 12 15 15 12 9 6 6 5 4 2 0 0 0 0 1 2 4 4 3 3 3 3 3 1 0 1 0 0 1 1 1 0 0 1 2 2 1